Home > Weather > Tofol > Past weeks

Flag for Micronesia Weather for the Past 2 Weeks in Tofol, Kosrae, Micronesia

Now
82 °F

More clouds than sun.


Feels Like: 88 °F
Forecast: 80 / 82 °F
Wind: 7 mph from Northeast

Location: Pohnpei

Current Time: Feb 15, 2016 at 10:23:49 AM

Latest Report: Feb 15, 2016 at 8:50 AM


Visibility: 15 mi

Pressure: 29.90 "Hg

Humidity: 72%

Dew point: 72 °F

Location of TofolLocation

Historic Weather in Tofol — Graph

°F

Tofol Temperature Yesterday

Maximum temperature yesterday: 86 °F (at 12:50 PM)
Minimum temperature yesterday: 80 °F (at 1:52 AM)
Average temperature yesterday: 82 °F

High & Low Weather Summary for the Past Weeks

 TemperatureHumidityPressure
High87 °F (Feb 11, 1:50 PM)96% (Feb 3, 10:52 PM)29.95 "Hg (Feb 3, 10:52 PM)
Low76 °F (Feb 4, 3:52 AM)62% (Jan 31, 8:52 PM)29.75 "Hg (Feb 9, 2:50 PM)
Average82 °F76%29.84 "Hg
* Reported Jan 31 8:50 AM — Feb 15 8:50 AM, Tofol, Weather by CustomWeather, © 2016

Note: Actual official high and low records may vary slightly from our data, if they occured in-between our weather recording intervals... More about our weather records

Advertising

Tofol Weather History for the Previous 24 Hours

 ConditionsComfort  
Time TempWeatherWind HumidityBarometerVisibility
8:50 AM
Mon, Feb 15
82 °FMore clouds than sun.7 mph72%29.90 "Hg15 mi
7:52 AM82 °FCloudy.9 mph72%29.88 "Hg15 mi
6:53 AM81 °FMostly cloudy.7 mph76%29.86 "Hg15 mi
5:53 AM81 °FPartly cloudy.3 mph72%29.83 "Hg15 mi
3:52 AM81 °FPartly cloudy.7 mph68%29.82 "Hg15 mi
2:52 AM81 °FPassing clouds.6 mph72%29.82 "Hg15 mi
1:52 AM81 °FPartly cloudy.6 mph79%29.84 "Hg15 mi
12:53 AM81 °FMostly cloudy.3 mph76%29.86 "Hg15 mi
11:52 PM
Sun, Feb 14
82 °FMostly cloudy.7 mph74%29.88 "Hg15 mi
10:52 PM82 °FMostly cloudy.8 mph73%29.88 "Hg15 mi
9:52 PM82 °FMostly cloudy.7 mph74%29.88 "Hg15 mi
8:52 PM82 °FOvercast.8 mph74%29.88 "Hg15 mi
7:51 PM82 °FMostly cloudy.7 mph73%29.85 "Hg15 mi
6:51 PM82 °FPartly cloudy.6 mph72%29.83 "Hg15 mi
5:51 PM82 °FMostly cloudy.7 mph73%29.82 "Hg15 mi
4:52 PM83 °FMostly cloudy.7 mph72%29.80 "Hg15 mi
3:50 PM83 °FMore clouds than sun.8 mph76%29.79 "Hg15 mi
2:52 PM83 °FMore clouds than sun.8 mph76%29.78 "Hg15 mi
1:50 PM85 °FCloudy.5 mph72%29.81 "Hg15 mi
12:50 PM86 °FMostly cloudy.9 mph70%29.83 "Hg15 mi
12:04 PM84 °FMostly cloudy.9 mph74%29.85 "Hg15 mi
11:50 AM85 °FMore clouds than sun.9 mph70%29.85 "Hg15 mi
10:50 AM84 °FCloudy.6 mph72%29.88 "Hg15 mi
Weather by CustomWeather, © 2016

See weather overviewHow to use our weather pages